This is the latest recevied weather packets stored in our database for station/object N5COP-13. If no packets are shown the sender has not sent any weather packets the latest 10 day(s).
| Time | Temp. | Humidity | Pressure | Rain* | Wind** | Luminosity | Snow |
|---|---|---|---|---|---|---|---|
| 1778119490 | 12.78° C | 51% | 1018.4 hPa | 0 mm | - | 0 W/m² | - |
| 1778119187 | 12.78° C | 51% | 1018.1 hPa | 0 mm | - | 0 W/m² | - |
| 1778118886 | 12.78° C | 51% | 1017.9 hPa | 0 mm | - | 0 W/m² | - |
| 1778118583 | 12.78° C | 51% | 1017.8 hPa | 0 mm | - | 0 W/m² | - |
| 1778118279 | 12.78° C | 51% | 1017.8 hPa | 0 mm | - | 1 W/m² | - |
| 1778117975 | 12.78° C | 50% | 1017.4 hPa | 0 mm | - | 2 W/m² | - |
| 1778117671 | 12.78° C | 50% | 1017.2 hPa | 0 mm | - | 4 W/m² | - |
| 1778117364 | 12.78° C | 50% | 1016.8 hPa | 0 mm | - | 6 W/m² | - |
| 1778117060 | 13.33° C | 49% | 1016.5 hPa | 0 mm | - | 9 W/m² | - |
| 1778116757 | 13.33° C | 49% | 1016.3 hPa | 0 mm | - | 12 W/m² | - |
| 1778116455 | 13.33° C | 49% | 1016.1 hPa | 0 mm | - | 15 W/m² | - |
| 1778116154 | 13.33° C | 49% | 1016.1 hPa | 0 mm | - | 18 W/m² | - |
| 1778115849 | 13.89° C | 49% | 1016.1 hPa | 0 mm | - | 21 W/m² | - |
| 1778115547 | 13.89° C | 48% | 1015.8 hPa | 0 mm | - | 25 W/m² | - |
| 1778115244 | 13.89° C | 48% | 1015.6 hPa | 0 mm | - | 25 W/m² | - |
| 1778114940 | 14.44° C | 47% | 1015.9 hPa | 0 mm | - | 33 W/m² | - |
| 1778114637 | 14.44° C | 46% | 1015.6 hPa | 0 mm | - | 60 W/m² | - |
| 1778114335 | 15° C | 46% | 1015.8 hPa | 0 mm | - | 69 W/m² | - |
| 1778114030 | 15° C | 46% | 1015.3 hPa | 0 mm | - | 81 W/m² | - |
| 1778113725 | 15° C | 46% | 1015.3 hPa | 0 mm | - | 89 W/m² | - |
| 1778113421 | 15° C | 46% | 1015.2 hPa | 0 mm | - | 98 W/m² | - |
| 1778113119 | 15° C | 46% | 1015.3 hPa | 0 mm | - | 112 W/m² | - |
| 1778112816 | 15° C | 45% | 1015 hPa | 0 mm | - | 130 W/m² | - |
| 1778112512 | 15.56° C | 44% | 1015 hPa | 0 mm | - | 145 W/m² | - |
| 1778112207 | 15.56° C | 45% | 1014.7 hPa | 0 mm | - | 160 W/m² | - |
* Rain latest hour (hover to see other rain measurements)
** Current wind speed in m/s (hover to see current wind gust speed)